Time,TemperatureF,DewpointF,PressureIn,WindDirection,WindDirectionDegrees,WindSpeedMPH,WindSpeedGustMPH,Humidity,HourlyPrecipIn,Conditions,Clouds,dailyrainin,SoftwareType,DateUTC
2013-09-28 00:01:00,53.8,48.5,30.13,SE,135,1.8,3.1,82,2.59,,,0.12,WUHU216HW,2013-09-28 04:01:00,
2013-09-28 00:06:00,54.0,48.6,30.13,SE,135,1.3,3.1,82,2.59,,,0.12,WUHU216HW,2013-09-28 04:06:00,
2013-09-28 00:11:00,54.0,48.6,30.13,SE,135,1.1,2.5,82,2.59,,,0.12,WUHU216HW,2013-09-28 04:11:00,
2013-09-28 00:16:00,54.0,48.6,30.13,South,180,1.6,2.5,82,2.59,,,0.12,WUHU216HW,2013-09-28 04:16:00,
2013-09-28 00:21:00,54.0,48.6,30.13,SE,135,1.8,2.5,82,2.59,,,0.12,WUHU216HW,2013-09-28 04:21:00,
2013-09-28 00:26:00,54.0,48.6,30.13,SSE,158,1.6,2.5,82,2.59,,,0.12,WUHU216HW,2013-09-28 04:26:00,
2013-09-28 00:31:00,54.0,48.6,30.13,South,180,1.1,2.2,82,2.59,,,0.12,WUHU216HW,2013-09-28 04:31:00,
2013-09-28 00:36:00,54.0,48.3,30.13,SE,135,0.0,1.6,81,2.59,,,0.12,WUHU216HW,2013-09-28 04:36:00,
2013-09-28 00:41:00,54.0,48.3,30.13,East,90,1.1,1.1,81,2.59,,,0.12,WUHU216HW,2013-09-28 04:41:00,
2013-09-28 00:46:00,53.8,48.2,30.13,ESE,113,1.1,1.1,81,2.59,,,0.12,WUHU216HW,2013-09-28 04:46:00,
2013-09-28 00:51:00,53.6,48.0,30.13,ENE,68,1.8,2.0,81,2.59,,,0.12,WUHU216HW,2013-09-28 04:51:00,
2013-09-28 00:56:00,53.5,47.8,30.13,ENE,68,1.3,2.0,81,2.59,,,0.12,WUHU216HW,2013-09-28 04:56:00,
2013-09-28 01:01:00,53.5,47.8,30.14,East,90,1.1,2.0,81,2.59,,,0.24,WUHU216HW,2013-09-28 05:01:00,
2013-09-28 01:06:00,53.5,47.8,30.14,East,90,0.9,1.8,81,2.59,,,0.24,WUHU216HW,2013-09-28 05:06:00,
2013-09-28 01:11:00,53.3,47.6,30.14,ESE,113,0.9,1.3,81,2.59,,,0.24,WUHU216HW,2013-09-28 05:11:00,
2013-09-28 01:16:00,53.3,47.6,30.13,ESE,113,1.1,1.8,81,2.59,,,0.24,WUHU216HW,2013-09-28 05:16:00,
2013-09-28 01:21:00,53.1,47.4,30.14,SE,135,0.7,1.8,81,2.59,,,0.24,WUHU216HW,2013-09-28 05:21:00,
2013-09-28 01:27:00,52.9,47.3,30.14,SE,135,1.1,1.8,81,2.59,,,0.24,WUHU216HW,2013-09-28 05:27:00,
2013-09-28 01:32:00,52.9,47.3,30.14,SSE,158,0.9,1.8,81,2.59,,,0.24,WUHU216HW,2013-09-28 05:32:00,
2013-09-28 01:37:00,52.7,47.1,30.14,SE,135,1.1,2.0,81,2.59,,,0.24,WUHU216HW,2013-09-28 05:37:00,
2013-09-28 01:42:00,52.6,47.3,30.14,SE,135,1.8,2.0,82,2.59,,,0.24,WUHU216HW,2013-09-28 05:42:00,
2013-09-28 01:47:00,52.2,46.9,30.14,ESE,113,1.1,2.0,82,2.59,,,0.24,WUHU216HW,2013-09-28 05:47:00,
2013-09-28 01:52:00,51.8,46.5,30.14,ESE,113,1.6,1.8,82,2.59,,,0.24,WUHU216HW,2013-09-28 05:52:00,
2013-09-28 01:57:00,51.8,46.5,30.14,SE,135,0.7,1.6,82,2.59,,,0.24,WUHU216HW,2013-09-28 05:57:00,
2013-09-28 02:02:00,51.8,46.5,30.14,ESE,113,0.4,1.6,82,2.59,,,0.36,WUHU216HW,2013-09-28 06:02:00,
2013-09-28 02:07:00,51.8,46.5,30.14,SE,135,1.8,2.0,82,2.59,,,0.36,WUHU216HW,2013-09-28 06:07:00,
2013-09-28 02:12:00,51.7,46.4,30.14,East,90,1.3,2.0,82,2.59,,,0.36,WUHU216HW,2013-09-28 06:12:00,
2013-09-28 02:17:00,51.7,46.4,30.14,East,90,1.1,1.8,82,2.59,,,0.36,WUHU216HW,2013-09-28 06:17:00,
2013-09-28 02:22:00,51.7,46.4,30.14,SE,135,1.1,3.4,82,2.59,,,0.36,WUHU216HW,2013-09-28 06:22:00,
2013-09-28 02:27:00,51.8,46.5,30.14,ESE,113,1.1,3.4,82,2.59,,,0.36,WUHU216HW,2013-09-28 06:27:00,
2013-09-28 02:32:00,51.8,46.5,30.14,SSE,158,0.7,1.8,82,2.59,,,0.36,WUHU216HW,2013-09-28 06:32:00,
2013-09-28 02:37:00,51.8,46.5,30.14,ESE,113,1.8,1.8,82,2.59,,,0.36,WUHU216HW,2013-09-28 06:37:00,
2013-09-28 02:42:00,51.8,46.5,30.14,SE,135,1.6,2.0,82,2.59,,,0.36,WUHU216HW,2013-09-28 06:42:00,
2013-09-28 02:47:00,51.7,46.4,30.14,SE,135,1.3,2.0,82,2.59,,,0.36,WUHU216HW,2013-09-28 06:47:00,
2013-09-28 02:52:00,51.7,46.4,30.14,SE,135,1.6,2.5,82,2.59,,,0.36,WUHU216HW,2013-09-28 06:52:00,
2013-09-28 02:57:00,51.5,46.2,30.14,ESE,113,2.0,2.5,82,2.59,,,0.36,WUHU216HW,2013-09-28 06:57:00,
2013-09-28 03:02:00,51.5,46.4,30.14,ESE,113,1.8,2.5,83,2.59,,,0.48,WUHU216HW,2013-09-28 07:02:00,
2013-09-28 03:07:00,51.5,46.8,30.13,East,90,2.0,2.5,84,2.59,,,0.48,WUHU216HW,2013-09-28 07:07:00,
2013-09-28 03:12:00,51.1,46.5,30.13,SE,135,1.6,2.5,84,2.59,,,0.48,WUHU216HW,2013-09-28 07:12:00,
2013-09-28 03:17:00,50.9,46.3,30.13,East,90,1.8,2.5,84,2.59,,,0.48,WUHU216HW,2013-09-28 07:17:00,
2013-09-28 03:22:00,50.8,46.1,30.13,East,90,0.9,2.5,84,2.59,,,0.48,WUHU216HW,2013-09-28 07:22:00,
2013-09-28 03:27:00,50.4,45.7,30.13,ENE,68,1.3,1.8,84,2.59,,,0.48,WUHU216HW,2013-09-28 07:27:00,
2013-09-28 03:32:00,50.4,45.7,30.13,ESE,113,1.3,2.0,84,2.59,,,0.48,WUHU216HW,2013-09-28 07:32:00,
2013-09-28 03:37:00,50.4,45.7,30.13,SE,135,1.6,2.0,84,2.59,,,0.48,WUHU216HW,2013-09-28 07:37:00,
2013-09-28 03:42:00,50.6,45.9,30.13,ESE,113,0.0,1.6,84,2.59,,,0.48,WUHU216HW,2013-09-28 07:42:00,
2013-09-28 03:47:00,50.8,46.1,30.12,ESE,113,1.1,1.6,84,2.59,,,0.48,WUHU216HW,2013-09-28 07:47:00,
2013-09-28 03:52:00,50.6,45.9,30.13,ESE,113,0.7,1.1,84,2.59,,,0.48,WUHU216HW,2013-09-28 07:52:00,
2013-09-28 03:57:00,50.6,45.9,30.12,ESE,113,0.4,1.1,84,2.59,,,0.48,WUHU216HW,2013-09-28 07:57:00,
2013-09-28 04:02:00,50.6,45.9,30.12,SSE,158,1.3,1.3,84,2.59,,,0.61,WUHU216HW,2013-09-28 08:02:00,
2013-09-28 04:07:00,50.4,45.7,30.13,SE,135,1.1,1.3,84,2.59,,,0.61,WUHU216HW,2013-09-28 08:07:00,
2013-09-28 04:12:00,50.2,45.6,30.12,SE,135,1.1,1.3,84,2.59,,,0.61,WUHU216HW,2013-09-28 08:12:00,
2013-09-28 04:17:00,50.0,45.4,30.12,ESE,113,1.8,2.5,84,2.59,,,0.61,WUHU216HW,2013-09-28 08:17:00,
2013-09-28 04:22:00,49.7,45.0,30.12,ESE,113,1.6,2.5,84,2.59,,,0.61,WUHU216HW,2013-09-28 08:22:00,
2013-09-28 04:27:00,49.5,44.5,30.12,ESE,113,1.8,2.7,83,2.59,,,0.61,WUHU216HW,2013-09-28 08:27:00,
2013-09-28 04:32:00,49.3,44.7,30.12,ESE,113,1.8,3.4,84,2.59,,,0.61,WUHU216HW,2013-09-28 08:32:00,
2013-09-28 04:37:00,49.1,44.8,30.12,ESE,113,2.2,3.4,85,2.59,,,0.61,WUHU216HW,2013-09-28 08:37:00,
2013-09-28 04:42:00,49.0,44.7,30.12,ESE,113,1.6,3.1,85,2.59,,,0.61,WUHU216HW,2013-09-28 08:42:00,
2013-09-28 04:47:00,48.8,44.5,30.12,ESE,113,2.5,3.1,85,2.59,,,0.61,WUHU216HW,2013-09-28 08:47:00,
2013-09-28 04:52:00,48.8,44.5,30.13,SSE,158,1.8,2.7,85,2.59,,,0.61,WUHU216HW,2013-09-28 08:52:00,
2013-09-28 04:57:00,48.6,44.3,30.12,SE,135,0.4,2.7,85,2.59,,,0.61,WUHU216HW,2013-09-28 08:57:00,
2013-09-28 05:02:00,48.6,44.3,30.12,ESE,113,1.6,2.0,85,2.59,,,0.81,WUHU216HW,2013-09-28 09:02:00,
2013-09-28 05:07:00,48.4,44.4,30.12,ESE,113,1.6,2.0,86,2.59,,,0.81,WUHU216HW,2013-09-28 09:07:00,
2013-09-28 05:12:00,48.2,44.3,30.12,ESE,113,1.1,2.0,86,2.59,,,0.81,WUHU216HW,2013-09-28 09:12:00,
2013-09-28 05:17:00,48.2,43.9,30.13,ESE,113,1.6,1.8,85,2.59,,,0.81,WUHU216HW,2013-09-28 09:17:00,
2013-09-28 05:22:00,48.2,44.3,30.12,ESE,113,1.6,2.5,86,2.59,,,0.81,WUHU216HW,2013-09-28 09:22:00,
2013-09-28 05:27:00,47.9,43.9,30.13,ESE,113,2.5,2.5,86,2.59,,,0.81,WUHU216HW,2013-09-28 09:27:00,
2013-09-28 05:32:00,47.9,43.9,30.13,ESE,113,2.0,2.9,86,2.59,,,0.81,WUHU216HW,2013-09-28 09:32:00,
2013-09-28 05:37:00,47.7,43.8,30.13,ESE,113,2.2,2.9,86,2.59,,,0.81,WUHU216HW,2013-09-28 09:37:00,
2013-09-28 05:42:00,47.9,43.9,30.13,ESE,113,1.8,2.7,86,2.59,,,0.81,WUHU216HW,2013-09-28 09:42:00,
2013-09-28 05:47:00,47.9,44.2,30.13,SE,135,2.5,2.5,87,2.59,,,0.81,WUHU216HW,2013-09-28 09:47:00,
2013-09-28 05:52:00,47.9,44.2,30.13,ESE,113,0.7,2.5,87,2.59,,,0.81,WUHU216HW,2013-09-28 09:52:00,
2013-09-28 05:57:00,47.9,44.2,30.13,ESE,113,1.8,2.5,87,2.59,,,0.81,WUHU216HW,2013-09-28 09:57:00,
2013-09-28 06:02:00,47.9,43.9,30.13,SE,135,0.7,2.2,86,2.59,,,0.93,WUHU216HW,2013-09-28 10:02:00,
2013-09-28 06:07:00,48.1,44.1,30.13,East,90,0.4,2.2,86,2.59,,,0.93,WUHU216HW,2013-09-28 10:07:00,
2013-09-28 06:12:00,48.1,44.1,30.13,ESE,113,0.9,1.8,86,2.59,,,0.93,WUHU216HW,2013-09-28 10:12:00,
2013-09-28 06:17:00,47.9,43.9,30.13,ESE,113,1.1,1.8,86,2.59,,,0.93,WUHU216HW,2013-09-28 10:17:00,
2013-09-28 06:22:00,47.9,43.6,30.13,ESE,113,1.8,1.8,85,2.59,,,0.93,WUHU216HW,2013-09-28 10:22:00,
2013-09-28 06:27:00,47.9,43.6,30.14,East,90,2.0,2.0,85,2.60,,,0.94,WUHU216HW,2013-09-28 10:27:00,
2013-09-28 06:32:00,47.7,43.4,30.13,ESE,113,1.3,2.2,85,2.60,,,0.94,WUHU216HW,2013-09-28 10:32:00,
2013-09-28 06:37:00,47.5,43.2,30.13,East,90,1.8,2.2,85,2.60,,,0.94,WUHU216HW,2013-09-28 10:37:00,
2013-09-28 06:42:00,47.5,43.6,30.13,ESE,113,1.3,2.0,86,2.60,,,0.94,WUHU216HW,2013-09-28 10:42:00,
2013-09-28 06:47:00,47.3,43.4,30.13,SE,135,1.1,1.8,86,2.60,,,0.94,WUHU216HW,2013-09-28 10:47:00,
2013-09-28 06:52:00,47.2,43.2,30.14,East,90,1.8,2.0,86,2.60,,,0.94,WUHU216HW,2013-09-28 10:52:00,
2013-09-28 06:57:00,47.0,43.0,30.14,ESE,113,1.3,2.0,86,2.60,,,0.94,WUHU216HW,2013-09-28 10:57:00,
2013-09-28 07:02:00,46.8,42.8,30.14,ESE,113,1.1,2.0,86,2.60,,,1.07,WUHU216HW,2013-09-28 11:02:00,
2013-09-28 07:07:00,47.0,43.0,30.14,ESE,113,1.8,1.8,86,2.60,,,1.07,WUHU216HW,2013-09-28 11:07:00,
2013-09-28 07:12:00,47.0,43.0,30.15,ESE,113,2.5,2.5,86,2.60,,,1.07,WUHU216HW,2013-09-28 11:12:00,
2013-09-28 07:17:00,47.0,43.0,30.15,ESE,113,1.8,2.5,86,2.60,,,1.07,WUHU216HW,2013-09-28 11:17:00,
2013-09-28 07:22:00,46.8,43.2,30.15,East,90,1.1,2.5,87,2.59,,,1.07,WUHU216HW,2013-09-28 11:22:00,
2013-09-28 07:27:00,46.6,43.0,30.15,ESE,113,1.3,2.0,87,2.59,,,1.07,WUHU216HW,2013-09-28 11:27:00,
2013-09-28 07:32:00,46.6,43.0,30.15,East,90,1.6,2.0,87,2.59,,,1.07,WUHU216HW,2013-09-28 11:32:00,
2013-09-28 07:37:00,46.6,43.0,30.15,ESE,113,2.2,2.5,87,2.59,,,1.07,WUHU216HW,2013-09-28 11:37:00,
2013-09-28 07:42:00,46.8,43.2,30.15,ESE,113,1.6,2.5,87,2.59,,,1.07,WUHU216HW,2013-09-28 11:42:00,
2013-09-28 07:47:00,47.0,43.4,30.15,East,90,0.4,2.5,87,2.59,,,1.07,WUHU216HW,2013-09-28 11:47:00,
2013-09-28 07:52:00,47.2,43.6,30.15,ESE,113,1.3,2.2,87,2.59,,,1.07,WUHU216HW,2013-09-28 11:52:00,
2013-09-28 07:57:00,47.3,43.7,30.15,ESE,113,1.1,1.6,87,2.59,,,1.07,WUHU216HW,2013-09-28 11:57:00,
2013-09-28 08:02:00,47.5,43.8,30.15,ESE,113,0.4,1.3,87,2.59,,,1.20,WUHU216HW,2013-09-28 12:02:00,
2013-09-28 08:07:00,47.9,44.2,30.15,ESE,113,0.0,1.1,87,2.59,,,1.20,WUHU216HW,2013-09-28 12:07:00,
2013-09-28 08:12:00,48.1,44.4,30.15,East,90,0.0,0.7,87,2.59,,,1.20,WUHU216HW,2013-09-28 12:12:00,
2013-09-28 08:17:00,48.2,44.6,30.15,ENE,68,0.0,0.2,87,2.59,,,1.20,WUHU216HW,2013-09-28 12:17:00,
2013-09-28 08:22:00,48.6,44.9,30.15,ESE,113,1.1,1.1,87,2.59,,,1.20,WUHU216HW,2013-09-28 12:22:00,
2013-09-28 08:27:00,48.8,45.1,30.15,SE,135,1.1,1.3,87,2.59,,,1.20,WUHU216HW,2013-09-28 12:27:00,
2013-09-28 08:32:00,49.1,45.7,30.15,ESE,113,1.3,1.8,88,2.59,,,1.20,WUHU216HW,2013-09-28 12:32:00,
2013-09-28 08:37:00,49.3,45.9,30.15,SE,135,1.3,1.8,88,2.59,,,1.20,WUHU216HW,2013-09-28 12:37:00,
2013-09-28 08:42:00,49.9,46.4,30.15,ESE,113,2.0,2.0,88,2.59,,,1.20,WUHU216HW,2013-09-28 12:42:00,
2013-09-28 08:47:00,50.0,46.9,30.15,SE,135,1.8,2.2,89,2.59,,,1.20,WUHU216HW,2013-09-28 12:47:00,
2013-09-28 08:52:00,50.4,47.3,30.15,East,90,0.4,2.2,89,2.59,,,1.20,WUHU216HW,2013-09-28 12:52:00,
2013-09-28 08:57:00,50.8,47.6,30.16,SSE,158,0.2,2.2,89,2.59,,,1.20,WUHU216HW,2013-09-28 12:57:00,
2013-09-28 09:02:00,51.1,48.0,30.15,SW,225,0.0,1.3,89,2.59,,,1.34,WUHU216HW,2013-09-28 13:02:00,
2013-09-28 09:07:00,51.5,48.3,30.15,SW,225,1.1,1.8,89,2.59,,,1.34,WUHU216HW,2013-09-28 13:07:00,
2013-09-28 09:12:00,52.0,49.1,30.15,SSW,203,0.0,1.8,90,2.59,,,1.34,WUHU216HW,2013-09-28 13:12:00,
2013-09-28 09:17:00,52.7,49.9,30.15,South,180,0.7,1.1,90,2.59,,,1.34,WUHU216HW,2013-09-28 13:17:00,
2013-09-28 09:22:00,53.5,50.6,30.15,SSW,203,0.0,1.1,90,2.59,,,1.34,WUHU216HW,2013-09-28 13:22:00,
2013-09-28 09:27:00,54.2,51.3,30.15,SSE,158,1.1,1.8,90,2.59,,,1.34,WUHU216HW,2013-09-28 13:27:00,
2013-09-28 09:32:00,54.5,51.7,30.15,SSW,203,0.2,1.8,90,2.59,,,1.34,WUHU216HW,2013-09-28 13:32:00,
2013-09-28 09:37:00,54.9,52.0,30.15,SSE,158,0.0,1.3,90,2.59,,,1.34,WUHU216HW,2013-09-28 13:37:00,
2013-09-28 09:42:00,55.4,52.2,30.15,ESE,113,0.2,1.3,89,2.59,,,1.34,WUHU216HW,2013-09-28 13:42:00,
2013-09-28 09:47:00,56.2,52.9,30.15,SSW,203,0.4,1.1,89,2.59,,,1.34,WUHU216HW,2013-09-28 13:47:00,
2013-09-28 09:52:00,56.5,53.3,30.15,SSE,158,1.1,1.8,89,2.59,,,1.34,WUHU216HW,2013-09-28 13:52:00,
2013-09-28 09:57:00,57.1,53.8,30.15,South,180,0.4,1.8,89,2.59,,,1.34,WUHU216HW,2013-09-28 13:57:00,
2013-09-28 10:02:00,57.8,54.3,30.15,North,0,0.0,1.3,88,2.59,,,1.47,WUHU216HW,2013-09-28 14:02:00,
2013-09-28 10:07:00,58.3,55.1,30.15,North,0,0.0,0.4,89,2.59,,,1.47,WUHU216HW,2013-09-28 14:07:00,
2013-09-28 10:12:00,58.9,55.4,30.15,North,0,0.0,0.0,88,2.59,,,1.47,WUHU216HW,2013-09-28 14:12:00,
2013-09-28 10:17:00,59.4,55.5,30.14,North,0,0.0,0.0,87,2.59,,,1.47,WUHU216HW,2013-09-28 14:17:00,
2013-09-28 10:22:00,59.8,55.9,30.15,North,0,0.0,0.0,87,2.59,,,1.47,WUHU216HW,2013-09-28 14:22:00,
2013-09-28 10:27:00,60.1,56.0,30.15,North,0,0.0,0.0,86,2.59,,,1.47,WUHU216HW,2013-09-28 14:27:00,
2013-09-28 10:32:00,60.5,56.0,30.14,North,0,0.0,0.0,85,2.59,,,1.47,WUHU216HW,2013-09-28 14:32:00,
2013-09-28 10:37:00,60.8,56.3,30.14,North,0,0.0,0.0,85,2.59,,,1.47,WUHU216HW,2013-09-28 14:37:00,
2013-09-28 10:42:00,61.2,56.3,30.14,North,0,0.0,0.0,84,2.59,,,1.47,WUHU216HW,2013-09-28 14:42:00,
2013-09-28 10:47:00,61.6,56.3,30.14,North,0,0.0,0.0,83,2.59,,,1.47,WUHU216HW,2013-09-28 14:47:00,
2013-09-28 10:52:00,62.3,56.7,30.14,North,0,0.0,0.0,82,2.59,,,1.47,WUHU216HW,2013-09-28 14:52:00,
2013-09-28 10:57:00,62.8,56.9,30.14,North,0,0.0,0.0,81,2.59,,,1.47,WUHU216HW,2013-09-28 14:57:00,
2013-09-28 11:02:00,63.4,57.4,30.14,North,0,0.0,0.0,81,2.59,,,1.68,WUHU216HW,2013-09-28 15:02:00,
2013-09-28 11:07:00,63.7,57.1,30.14,North,0,0.0,0.0,79,2.59,,,1.68,WUHU216HW,2013-09-28 15:07:00,
2013-09-28 11:12:00,64.3,57.2,30.14,North,0,0.0,0.0,78,2.59,,,1.68,WUHU216HW,2013-09-28 15:12:00,
2013-09-28 11:17:00,64.4,57.8,30.14,North,0,0.0,0.0,79,2.59,,,1.68,WUHU216HW,2013-09-28 15:17:00,
2013-09-28 11:22:00,65.2,58.2,30.14,North,0,0.0,0.0,78,2.59,,,1.68,WUHU216HW,2013-09-28 15:22:00,
2013-09-28 11:27:00,65.5,58.5,30.13,North,0,0.0,0.0,78,2.59,,,1.68,WUHU216HW,2013-09-28 15:27:00,
2013-09-28 11:32:00,65.9,58.5,30.13,North,0,0.0,0.0,77,2.59,,,1.68,WUHU216HW,2013-09-28 15:32:00,
2013-09-28 11:37:00,66.2,57.7,30.13,North,0,0.0,0.0,74,2.59,,,1.68,WUHU216HW,2013-09-28 15:37:00,
2013-09-28 11:42:00,66.4,57.9,30.13,North,0,0.0,0.0,74,2.59,,,1.68,WUHU216HW,2013-09-28 15:42:00,
2013-09-28 11:47:00,66.6,58.1,30.13,North,0,0.0,0.0,74,2.59,,,1.68,WUHU216HW,2013-09-28 15:47:00,
2013-09-28 11:52:00,67.0,58.1,30.12,North,0,0.0,0.0,73,2.59,,,1.68,WUHU216HW,2013-09-28 15:52:00,
2013-09-28 11:57:00,67.3,58.8,30.12,North,0,0.0,0.0,74,2.59,,,1.68,WUHU216HW,2013-09-28 15:57:00,
2013-09-28 12:02:00,67.7,58.3,30.12,North,0,0.0,0.0,72,2.59,,,1.89,WUHU216HW,2013-09-28 16:02:00,
2013-09-28 12:07:00,68.0,58.7,30.12,North,0,0.0,0.0,72,2.59,,,1.89,WUHU216HW,2013-09-28 16:07:00,
2013-09-28 12:12:00,68.4,58.3,30.11,North,0,0.0,0.0,70,2.59,,,1.89,WUHU216HW,2013-09-28 16:12:00,
2013-09-28 12:17:00,68.9,58.8,30.10,North,0,0.0,0.0,70,2.59,,,1.89,WUHU216HW,2013-09-28 16:17:00,
2013-09-28 12:22:00,69.7,58.0,30.10,North,0,0.0,0.0,66,2.59,,,1.89,WUHU216HW,2013-09-28 16:22:00,
2013-09-28 12:27:00,69.7,58.0,30.07,North,0,0.0,0.0,66,2.59,,,1.89,WUHU216HW,2013-09-28 16:27:00,
2013-09-28 12:32:00,69.7,58.0,30.07,North,0,0.0,0.0,66,2.59,,,1.89,WUHU216HW,2013-09-28 16:32:00,
2013-09-28 12:54:00,71.6,57.5,30.15,North,0,0.0,0.0,61,2.59,,,1.89,WUHU216HW,2013-09-28 16:54:00,
2013-09-28 12:59:00,71.8,58.3,30.08,North,0,0.0,0.0,62,2.59,,,1.89,WUHU216HW,2013-09-28 16:59:00,
2013-09-28 13:00:00,72.0,58.5,30.12,North,0,0.0,0.0,62,2.59,,,1.89,WUHU216HW,2013-09-28 17:00:00,
2013-09-28 13:04:00,72.0,58.5,30.12,North,0,0.0,0.0,62,2.59,,,1.89,WUHU216HW,2013-09-28 17:04:00,
2013-09-28 13:09:00,72.0,58.5,30.12,North,0,0.0,0.0,62,2.59,,,1.89,WUHU216HW,2013-09-28 17:09:00,
2013-09-28 13:31:00,72.5,58.3,30.13,North,0,0.0,0.0,61,2.59,,,1.98,WUHU216HW,2013-09-28 17:31:00,
2013-09-28 13:34:00,72.9,58.4,30.09,North,0,0.0,0.0,60,2.59,,,2.03,WUHU216HW,2013-09-28 17:34:00,
2013-09-28 13:36:00,72.9,58.4,30.09,North,0,0.0,0.0,60,2.59,,,2.03,WUHU216HW,2013-09-28 17:36:00,
2013-09-28 13:41:00,72.9,58.4,30.09,North,0,0.0,0.0,60,2.59,,,2.03,WUHU216HW,2013-09-28 17:41:00,
2013-09-28 14:00:00,74.3,58.6,30.11,North,0,0.0,0.0,58,2.59,,,2.03,WUHU216HW,2013-09-28 18:00:00,
2013-09-28 14:02:00,74.5,58.9,30.07,North,0,0.0,0.0,58,2.59,,,2.16,WUHU216HW,2013-09-28 18:02:00,
2013-09-28 14:05:00,74.5,58.9,30.07,North,0,0.0,0.0,58,2.59,,,2.16,WUHU216HW,2013-09-28 18:05:00,
2013-09-28 14:10:00,74.5,58.9,30.07,North,0,0.0,0.0,58,2.59,,,2.16,WUHU216HW,2013-09-28 18:10:00,
2013-09-28 14:33:00,74.5,56.7,30.10,North,0,0.0,0.0,54,2.59,,,2.16,WUHU216HW,2013-09-28 18:33:00,
2013-09-28 14:35:00,74.7,57.4,30.06,North,0,0.0,0.0,55,2.59,,,2.16,WUHU216HW,2013-09-28 18:35:00,
2013-09-28 14:38:00,74.7,57.4,30.06,North,0,0.0,0.0,55,2.59,,,2.16,WUHU216HW,2013-09-28 18:38:00,
2013-09-28 14:43:00,74.7,57.4,30.06,North,0,0.0,0.0,55,2.59,,,2.16,WUHU216HW,2013-09-28 18:43:00,
2013-09-28 15:00:00,76.0,57.1,30.09,North,0,0.0,0.0,52,2.59,,,2.16,WUHU216HW,2013-09-28 19:00:00,
2013-09-28 15:01:00,76.1,57.3,30.02,North,0,0.0,0.0,52,2.59,,,2.29,WUHU216HW,2013-09-28 19:01:00,
2013-09-28 15:05:00,76.1,57.3,30.02,North,0,0.0,0.0,52,2.59,,,2.29,WUHU216HW,2013-09-28 19:05:00,
2013-09-28 15:10:00,76.1,57.3,30.02,North,0,0.0,0.0,52,2.59,,,2.29,WUHU216HW,2013-09-28 19:10:00,
2013-09-28 15:32:00,80.3,58.8,30.08,North,0,0.0,0.0,48,2.59,,,2.29,WUHU216HW,2013-09-28 19:32:00,
2013-09-28 15:34:00,80.3,58.8,30.04,North,0,0.0,0.0,48,2.59,,,2.29,WUHU216HW,2013-09-28 19:34:00,
2013-09-28 15:37:00,80.3,58.8,30.04,North,0,0.0,0.0,48,2.59,,,2.29,WUHU216HW,2013-09-28 19:37:00,
2013-09-28 15:42:00,80.3,58.8,30.04,North,0,0.0,0.0,48,2.59,,,2.29,WUHU216HW,2013-09-28 19:42:00,
2013-09-28 16:00:00,80.8,58.6,30.06,North,0,0.0,0.0,47,2.59,,,2.29,WUHU216HW,2013-09-28 20:00:00,
2013-09-28 16:01:00,81.0,58.9,30.05,North,0,0.0,0.0,47,2.59,,,2.42,WUHU216HW,2013-09-28 20:01:00,
2013-09-28 16:05:00,81.0,58.9,30.05,North,0,0.0,0.0,47,2.59,,,2.42,WUHU216HW,2013-09-28 20:05:00,
2013-09-28 16:10:00,81.0,58.9,30.05,North,0,0.0,0.0,47,2.59,,,2.42,WUHU216HW,2013-09-28 20:10:00,
2013-09-28 16:32:00,81.2,58.3,30.05,WNW,293,0.9,0.9,46,2.59,,,2.42,WUHU216HW,2013-09-28 20:32:00,
2013-09-28 16:34:00,81.0,58.8,30.02,North,0,0.9,0.9,47,2.59,,,2.42,WUHU216HW,2013-09-28 20:34:00,
2013-09-28 16:37:00,81.0,58.8,30.02,North,0,0.9,1.8,47,2.59,,,2.42,WUHU216HW,2013-09-28 20:37:00,
2013-09-28 16:42:00,81.0,58.8,30.02,North,0,0.9,1.8,47,2.59,,,2.42,WUHU216HW,2013-09-28 20:42:00,
2013-09-28 17:00:00,79.4,58.0,30.04,NNW,338,1.3,1.3,48,2.59,,,2.42,WUHU216HW,2013-09-28 21:00:00,
2013-09-28 17:01:00,79.2,57.3,30.03,NNW,338,0.0,0.4,47,2.59,,,2.55,WUHU216HW,2013-09-28 21:01:00,
2013-09-28 17:05:00,79.2,57.3,30.03,NNW,338,0.0,1.8,47,2.59,,,2.55,WUHU216HW,2013-09-28 21:05:00,
2013-09-28 17:10:00,79.2,57.3,30.03,NNW,338,0.0,1.8,47,2.59,,,2.55,WUHU216HW,2013-09-28 21:10:00,
2013-09-28 17:32:00,76.7,57.8,30.04,SSW,203,1.1,1.1,52,2.59,,,2.55,WUHU216HW,2013-09-28 21:32:00,
2013-09-28 17:33:00,76.5,58.2,30.03,SW,225,0.0,0.0,53,2.59,,,2.55,WUHU216HW,2013-09-28 21:33:00,
2013-09-28 17:37:00,76.5,58.2,30.03,SW,225,0.0,1.1,53,2.59,,,2.55,WUHU216HW,2013-09-28 21:37:00,
2013-09-28 17:42:00,76.5,58.2,30.03,SW,225,0.0,1.1,53,2.59,,,2.55,WUHU216HW,2013-09-28 21:42:00,
2013-09-28 18:00:00,76.3,59.4,30.04,SE,135,1.3,1.3,56,2.59,,,2.55,WUHU216HW,2013-09-28 22:00:00,
2013-09-28 18:01:00,76.7,60.0,30.03,South,180,1.1,1.1,56,2.59,,,2.69,WUHU216HW,2013-09-28 22:01:00,
2013-09-28 18:05:00,76.7,60.0,30.03,South,180,1.1,1.8,56,2.59,,,2.69,WUHU216HW,2013-09-28 22:05:00,
2013-09-28 18:10:00,76.7,60.0,30.03,South,180,1.1,1.8,56,2.59,,,2.69,WUHU216HW,2013-09-28 22:10:00,
2013-09-28 18:32:00,76.3,58.0,30.04,SSE,158,0.9,0.9,53,2.59,,,2.69,WUHU216HW,2013-09-28 22:32:00,
2013-09-28 18:33:00,76.3,58.0,30.03,South,180,1.1,1.1,53,2.59,,,2.69,WUHU216HW,2013-09-28 22:33:00,
2013-09-28 18:37:00,76.3,58.0,30.03,South,180,1.1,1.1,53,2.59,,,2.69,WUHU216HW,2013-09-28 22:37:00,
2013-09-28 18:42:00,76.3,58.0,30.03,South,180,1.1,1.1,53,2.59,,,2.69,WUHU216HW,2013-09-28 22:42:00,
2013-09-28 19:00:00,72.9,56.2,30.04,SSE,158,0.9,0.9,56,0.00,,,2.69,WUHU216HW,2013-09-28 23:00:00,
2013-09-28 19:01:00,72.9,56.4,30.03,SE,135,0.0,0.4,56,0.00,,,2.82,WUHU216HW,2013-09-28 23:01:00,
2013-09-28 19:05:00,72.9,56.4,30.03,SE,135,0.0,0.9,56,0.00,,,2.82,WUHU216HW,2013-09-28 23:05:00,
2013-09-28 19:10:00,72.9,56.4,30.03,SE,135,0.0,0.7,56,0.00,,,2.82,WUHU216HW,2013-09-28 23:10:00,
2013-09-28 19:32:00,68.8,54.4,30.04,SW,225,0.9,0.9,60,2.59,,,2.82,WUHU216HW,2013-09-28 23:32:00,
2013-09-28 19:33:00,68.6,54.8,30.02,SSW,203,1.1,1.1,61,2.59,,,2.82,WUHU216HW,2013-09-28 23:33:00,
2013-09-28 19:37:00,68.6,54.8,30.02,SSW,203,1.1,1.1,61,2.59,,,2.82,WUHU216HW,2013-09-28 23:37:00,
2013-09-28 19:42:00,68.6,54.8,30.02,SSW,203,1.1,1.1,61,2.59,,,2.82,WUHU216HW,2013-09-28 23:42:00,
2013-09-28 20:00:00,66.4,53.8,30.04,West,270,1.3,1.3,64,0.00,,,2.82,WUHU216HW,2013-09-29 00:00:00,
2013-09-28 20:05:00,66.2,53.8,30.03,WNW,293,1.6,2.0,64,0.00,,,2.95,WUHU216HW,2013-09-29 00:05:00,
2013-09-28 20:10:00,66.2,53.8,30.03,WNW,293,1.6,2.0,64,0.00,,,2.95,WUHU216HW,2013-09-29 00:10:00,
2013-09-28 20:31:00,65.2,53.1,30.04,WSW,248,1.6,1.6,65,2.59,,,2.95,WUHU216HW,2013-09-29 00:31:00,
2013-09-28 20:32:00,65.2,53.3,30.04,SW,225,1.1,1.6,65,2.59,,,2.95,WUHU216HW,2013-09-29 00:32:00,
2013-09-28 20:36:00,65.2,53.3,30.04,SW,225,1.1,1.6,65,2.59,,,2.95,WUHU216HW,2013-09-29 00:36:00,
2013-09-28 20:41:00,65.2,53.3,30.04,SW,225,1.1,1.6,65,2.59,,,2.95,WUHU216HW,2013-09-29 00:41:00,
2013-09-28 21:00:00,63.7,52.6,30.04,West,270,1.3,1.3,67,0.00,,,2.95,WUHU216HW,2013-09-29 01:00:00,
2013-09-28 21:05:00,63.7,52.7,30.04,WSW,248,1.1,1.3,67,0.00,,,3.08,WUHU216HW,2013-09-29 01:05:00,
2013-09-28 21:10:00,63.7,52.7,30.04,WSW,248,1.1,1.1,67,0.00,,,3.08,WUHU216HW,2013-09-29 01:10:00,
2013-09-28 21:31:00,62.3,51.6,30.04,WNW,293,0.7,0.7,68,2.59,,,3.08,WUHU216HW,2013-09-29 01:31:00,
2013-09-28 21:36:00,62.3,51.8,30.01,West,270,0.4,0.7,68,2.59,,,3.08,WUHU216HW,2013-09-29 01:36:00,
2013-09-28 21:41:00,62.3,51.8,30.01,West,270,0.4,0.4,68,2.59,,,3.08,WUHU216HW,2013-09-29 01:41:00,
2013-09-28 22:00:00,61.4,51.2,30.03,West,270,1.6,1.6,69,0.00,,,3.08,WUHU216HW,2013-09-29 02:00:00,
2013-09-28 22:05:00,61.4,51.3,30.03,SW,225,1.1,1.6,69,0.00,,,3.22,WUHU216HW,2013-09-29 02:05:00,
2013-09-28 22:31:00,60.5,50.3,30.03,South,180,0.7,0.7,69,2.59,,,3.22,WUHU216HW,2013-09-29 02:31:00,
2013-09-28 22:36:00,60.5,50.4,30.03,SE,135,2.7,2.7,69,2.59,,,3.22,WUHU216HW,2013-09-29 02:36:00,
2013-09-28 22:41:00,60.5,50.4,30.03,SE,135,2.7,2.7,69,2.59,,,3.22,WUHU216HW,2013-09-29 02:41:00,
2013-09-28 23:00:00,60.1,50.0,30.02,SSW,203,4.5,4.5,69,2.59,,,3.22,WUHU216HW,2013-09-29 03:00:00,
2013-09-28 23:05:00,60.1,50.0,30.02,SSW,203,5.8,5.8,69,2.59,,,3.35,WUHU216HW,2013-09-29 03:05:00,
2013-09-28 23:10:00,60.1,50.0,30.02,SSW,203,5.8,5.8,69,2.59,,,3.35,WUHU216HW,2013-09-29 03:10:00,
2013-09-28 23:31:00,59.8,50.0,30.02,South,180,3.1,3.1,70,2.59,,,3.35,WUHU216HW,2013-09-29 03:31:00,
2013-09-28 23:36:00,59.8,50.0,30.02,South,180,3.4,3.4,70,2.59,,,3.35,WUHU216HW,2013-09-29 03:36:00,
2013-09-28 23:41:00,59.8,50.0,30.02,South,180,3.4,3.4,70,2.59,,,3.35,WUHU216HW,2013-09-29 03:41:00,